Location: Brockett
(40.8000°S, 175.4500°E)
Time: 17:19:51
(UTC+00:00)

SL-8 R/B - Pass Details

Date: 04 August 2024
Orbit: 651 x 661 km, 48.4° (Epoch: 18 September)

Event Time Altitude Azimuth Distance (km) Brightness Sun altitude
Exits shadow 18:05:48 23° 261° (W) 1,413 4.8 -14.4°
Maximum altitude 18:08:29 46° 199° (SSW) 890 4.1 -13.9°
Drops below altitude 10° 18:13:09 10° 124° (SE) 2,089 6.9 -13.0°
Sets 18:15:35 0° 118° (ESE) 3,001 7.9 -12.6°
